User: anonymous
Location: Caltech
(34.1382°N, 118.1253°W)
Time: 03:26:47
(UTC-07:00)
Language:

Saudisat 1A - Orbit

View from above orbital plane
View from above orbital plane
View from above satellite
View from above satellite

Ground track
Ground track

The orbit data is extracted from the following two-line orbital elements,

1 26546U 00057B   14274.74308740  .00002309  00000-0  26517-3 0  3875
2 26546 064.5573 188.9105 0005688 294.1637 065.8877 14.88270726759250
Epoch (UTC): 01 October 2014 17:50:02
Eccentricity: 0.0005688
inclination: 64.5573°
perigee height: 599 km
apogee height: 607 km
right ascension of ascending node: 188.9105°
argument of perigee: 294.1637°
revolutions per day: 14.88270726
mean anomaly at epoch: 65.8877°
orbit number at epoch: 75925

The dashed part of the orbit path shows where the satellite is in the earth's shadow,  

DLR